Location: M?digepalle
(16.1753°N, 80.3496°E)
Time: 08:39:00
(UTC+00:00)

H-2A R/B - Pass Details

Date: 29 October 2020
Orbit: 733 x 837 km, 98.2° (Epoch: 28 November)

Event Time Altitude Azimuth Distance (km) Brightness Sun altitude
Rises 14:25:35 0° 182° (S) 3,303 5.4 -33.0°
Reaches altitude 10° 14:27:59 10° 189° (S) 2,388 4.7 -33.5°
Enters shadow 14:29:42 20° 198° (SSW) 1,790 4.1 -33.9°
Exits shadow 14:35:13 29° 310° (NW) 1,478 3.7 -35.3°
Drops below altitude 10° 14:38:07 10° 331° (NNW) 2,436 4.8 -36.0°
Sets 14:40:36 0° 338° (NNW) 3,376 5.5 -36.6°
